Precipitable_Water
0.42 0.41 0.42 0.35 0.19 0.17 0.13 0.14 0.31 0.37 0.38 0.48 0.78 0.71 0.71 0.73 0.61 0.47 0.98 0.94 0.88 0.83 0.89 0.94 0.90 0.91 0.90 0.89 0.92 0.91 0.87 0.87 0.89 0.92 0.93 0.95 0.98 0.98 0.97 0.98 0.99 1.00 0.95 0.91 0.91 0.91 0.93 0.94 0.96
0.39 0.39 0.36 0.29 0.15 0.09 0.13 0.21 0.26 0.38 0.44 0.56 0.71 0.75 0.71 0.67 0.86 0.83 0.77 0.96 0.93 0.84 0.87 0.91 0.90 0.91 0.92 0.91 0.96 0.96 0.90 0.88 0.89 0.91 0.94 0.95 0.95 0.98 0.96 0.96 0.95 0.93 0.90 0.90 0.94 0.95 0.95 0.96 0.98
0.36 0.42 0.25 0.19 0.16 0.09 0.19 0.29 0.31 0.38 0.50 0.67 0.69 0.83 0.77 0.71 0.85 0.74 0.96 1.00 1.00 0.87 0.88 0.90 0.91 0.92 0.94 0.94 0.97 1.01 0.98 0.90 0.88 0.89 0.90 0.90 0.91 0.91 0.93 0.90 0.88 0.88 0.89 0.90 0.94 0.98 0.97 0.96 1.00
0.30 0.33 0.30 0.17 0.12 0.15 0.26 0.35 0.38 0.38 0.49 0.64 0.76 0.67 0.85 0.93 0.77 0.84 1.00 1.02 0.96 0.89 0.89 0.90 0.92 0.92 0.94 0.97 1.00 1.03 1.03 0.98 0.92 0.88 0.90 0.89 0.89 0.87 0.87 0.86 0.85 0.87 0.88 0.89 0.91 0.93 0.95 0.96 0.96
0.35 0.29 0.17 0.15 0.14 0.17 0.29 0.34 0.43 0.39 0.43 0.50 0.69 0.64 0.67 0.89 0.92 0.98 0.97 0.99 0.87 0.86 0.88 0.90 0.92 0.94 0.95 0.98 1.03 1.05 1.05 1.05 0.98 0.93 0.91 0.90 0.89 0.87 0.85 0.87 0.88 0.87 0.87 0.87 0.88 0.87 0.90 0.92 0.93
0.23 0.26 0.13 0.10 0.12 0.15 0.28 0.31 0.39 0.40 0.42 0.44 0.63 0.69 0.68 0.97 0.87 0.96 0.98 0.93 0.96 0.85 0.88 0.90 0.93 0.96 0.96 0.98 1.04 1.08 1.09 1.11 1.06 1.00 0.97 0.95 0.91 0.88 0.87 0.88 0.90 0.90 0.86 0.84 0.84 0.85 0.83 0.85 0.88
0.22 0.19 0.13 0.13 0.13 0.14 0.18 0.28 0.36 0.38 0.41 0.45 0.70 0.64 0.72 0.82 0.95 0.97 0.97 0.99 0.94 0.91 0.88 0.89 0.94 0.97 0.98 0.99 1.03 1.09 1.12 1.14 1.14 1.05 1.02 1.00 0.96 0.93 0.92 0.92 0.91 0.92 0.89 0.84 0.81 0.82 0.82 0.78 0.78
0.29 0.22 0.14 0.14 0.12 0.11 0.18 0.25 0.34 0.38 0.39 0.49 0.78 0.62 0.61 0.77 0.96 0.96 0.98 0.95 0.92 0.90 0.90 0.88 0.94 0.95 0.99 1.02 1.04 1.09 1.13 1.17 1.17 1.13 1.07 1.06 1.03 1.01 0.99 0.98 0.96 0.95 0.91 0.87 0.86 0.82 0.81 0.81 0.78
0.35 0.20 0.13 0.12 0.13 0.13 0.19 0.20 0.36 0.39 0.38 0.54 0.77 0.78 0.89 0.98 0.96 0.87 0.85 0.87 0.86 0.86 0.90 0.94 0.93 0.96 0.97 1.02 1.06 1.10 1.15 1.19 1.20 1.18 1.13 1.11 1.10 1.09 1.07 1.05 1.04 1.00 0.96 0.92 0.88 0.87 0.85 0.82 0.79
0.29 0.19 0.16 0.19 0.17 0.15 0.18 0.21 0.31 0.33 0.36 0.41 0.53 0.85 0.99 1.03 0.92 0.73 0.71 0.71 0.76 0.77 0.86 0.94 0.95 0.96 1.00 1.02 1.07 1.10 1.16 1.20 1.22 1.22 1.18 1.15 1.15 1.16 1.15 1.14 1.12 1.09 1.05 1.00 0.95 0.89 0.86 0.85 0.83
0.29 0.19 0.21 0.20 0.21 0.22 0.19 0.19 0.30 0.30 0.31 0.39 0.43 0.57 0.90 1.03 0.95 0.80 0.75 0.74 0.71 0.79 0.87 0.92 0.95 0.98 1.00 1.01 1.06 1.09 1.14 1.17 1.21 1.22 1.21 1.19 1.18 1.20 1.21 1.19 1.19 1.16 1.15 1.09 1.05 0.99 0.95 0.92 0.91
0.25 0.25 0.25 0.23 0.24 0.23 0.20 0.22 0.25 0.29 0.34 0.44 0.45 0.56 0.83 0.95 0.91 0.85 0.80 0.80 0.77 0.81 0.85 0.90 0.96 0.95 0.98 1.04 1.05 1.07 1.08 1.12 1.15 1.19 1.20 1.17 1.15 1.16 1.19 1.21 1.22 1.22 1.21 1.16 1.14 1.10 1.07 1.05 1.07
0.27 0.26 0.26 0.25 0.25 0.24 0.25 0.20 0.24 0.27 0.37 0.42 0.45 0.55 0.79 0.97 0.99 0.98 0.94 0.95 0.94 0.87 0.84 0.88 0.96 0.95 0.98 1.00 1.05 1.07 1.07 1.08 1.11 1.16 1.18 1.16 1.13 1.12 1.17 1.20 1.24 1.26 1.28 1.24 1.24 1.24 1.23 1.22 1.22
0.29 0.28 0.25 0.24 0.22 0.22 0.20 0.20 0.23 0.24 0.34 0.37 0.40 0.44 0.73 0.96 0.99 1.01 0.97 0.97 0.99 0.96 0.89 0.94 0.95 1.01 1.02 1.00 1.04 1.04 1.08 1.09 1.09 1.12 1.14 1.15 1.13 1.11 1.13 1.14 1.19 1.24 1.30 1.33 1.33 1.32 1.37 1.40 1.41
0.27 0.23 0.26 0.24 0.22 0.20 0.23 0.17 0.16 0.22 0.32 0.33 0.37 0.39 0.59 0.73 0.86 0.92 1.00 1.03 1.04 0.98 0.98 0.94 0.98 1.01 1.01 1.02 1.05 1.07 1.08 1.08 1.05 1.07 1.13 1.14 1.14 1.12 1.12 1.11 1.14 1.23 1.33 1.38 1.41 1.39 1.42 1.43 1.47
0.26 0.24 0.16 0.19 0.21 0.24 0.23 0.11 0.15 0.22 0.27 0.30 0.36 0.37 0.41 0.64 0.70 0.72 0.86 1.02 1.15 1.17 0.99 1.01 1.03 1.02 1.01 1.00 1.03 1.08 1.09 1.08 1.06 1.06 1.09 1.12 1.13 1.12 1.11 1.10 1.13 1.26 1.34 1.38 1.39 1.40 1.38 1.38 1.37
0.29 0.16 0.18 0.19 0.26 0.25 0.24 0.15 0.17 0.20 0.21 0.24 0.33 0.37 0.38 0.39 0.46 0.64 0.70 0.78 0.92 1.06 1.13 1.04 1.03 0.99 0.98 1.04 1.07 1.09 1.09 1.07 1.06 1.07 1.06 1.10 1.13 1.12 1.10 1.10 1.14 1.23 1.27 1.31 1.36 1.34 1.32 1.26 1.27
0.26 0.25 0.25 0.26 0.29 0.25 0.24 0.21 0.25 0.23 0.24 0.23 0.24 0.34 0.37 0.38 0.39 0.42 0.49 0.64 0.69 0.83 1.04 1.11 1.04 1.02 1.04 1.08 1.10 1.10 1.12 1.07 1.07 1.04 1.05 1.09 1.12 1.13 1.11 1.11 1.14 1.20 1.22 1.29 1.31 1.28 1.32 1.26 1.23
0.36 0.33 0.29 0.32 0.37 0.34 0.31 0.25 0.26 0.30 0.28 0.25 0.23 0.27 0.35 0.37 0.40 0.42 0.43 0.43 0.44 0.58 0.71 0.89 0.95 0.96 1.01 0.98 0.96 0.96 0.92 1.01 1.04 1.05 1.08 1.12 1.13 1.15 1.13 1.13 1.16 1.21 1.22 1.27 1.31 1.31 1.24 1.22 1.28
0.43 0.35 0.33 0.41 0.42 0.37 0.34 0.28 0.29 0.29 0.27 0.27 0.27 0.25 0.25 0.32 0.36 0.39 0.41 0.42 0.43 0.42 0.49 0.65 0.79 0.89 0.90 0.95 0.95 1.02 1.04 1.08 1.10 1.12 1.11 1.21 1.20 1.19 1.15 1.13 1.17 1.23 1.26 1.27 1.30 1.28 1.22 1.24 1.23
0.35 0.35 0.35 0.37 0.43 0.43 0.38 0.30 0.30 0.31 0.28 0.25 0.28 0.27 0.26 0.26 0.28 0.33 0.37 0.40 0.43 0.43 0.44 0.48 0.62 0.73 0.80 0.89 0.98 1.05 1.18 1.18 1.11 1.09 1.08 1.21 1.27 1.23 1.19 1.20 1.23 1.25 1.31 1.27 1.28 1.31 1.23 1.13 1.16
0.24 0.31 0.36 0.37 0.37 0.30 0.39 0.23 0.31 0.30 0.30 0.28 0.24 0.23 0.27 0.28 0.31 0.33 0.33 0.36 0.41 0.44 0.51 0.56 0.63 0.75 0.83 0.93 0.95 0.92 0.89 0.88 0.95 1.06 1.15 1.22 1.35 1.30 1.29 1.28 1.30 1.31 1.33 1.30 1.29 1.31 1.26 1.24 1.11
0.23 0.31 0.30 0.30 0.28 0.29 0.28 0.24 0.19 0.28 0.29 0.30 0.29 0.30 0.29 0.30 0.30 0.32 0.35 0.39 0.42 0.43 0.47 0.62 0.76 0.88 0.96 0.99 0.99 0.98 0.98 1.04 1.09 1.16 1.17 1.25 1.34 1.36 1.31 1.29 1.29 1.31 1.33 1.33 1.31 1.29 1.26 1.19 1.15
0.37 0.34 0.33 0.32 0.29 0.21 0.17 0.19 0.11 0.16 0.17 0.24 0.33 0.36 0.35 0.33 0.33 0.36 0.37 0.42 0.43 0.48 0.54 0.67 0.77 0.86 1.01 1.05 1.05 1.02 1.02 1.04 1.03 1.12 1.15 1.21 1.31 1.33 1.34 1.33 1.34 1.37 1.34 1.31 1.33 1.27 1.17 1.12 1.10
0.46 0.34 0.24 0.23 0.23 0.15 0.22 0.25 0.15 0.18 0.18 0.19 0.20 0.25 0.34 0.39 0.39 0.39 0.42 0.43 0.48 0.53 0.56 0.67 0.77 0.84 0.99 1.04 1.09 1.10 1.10 1.11 1.08 1.11 1.17 1.20 1.29 1.28 1.27 1.32 1.29 1.29 1.33 1.34 1.33 1.21 1.15 1.09 1.11
0.36 0.38 0.26 0.19 0.18 0.17 0.31 0.25 0.13 0.21 0.23 0.21 0.23 0.24 0.25 0.27 0.35 0.41 0.41 0.43 0.46 0.52 0.58 0.64 0.71 0.73 0.86 0.97 1.01 1.11 1.15 1.15 1.19 1.23 1.25 1.31 1.32 1.31 1.30 1.32 1.38 1.41 1.42 1.34 1.26 1.16 1.15 1.13 1.04
0.35 0.35 0.36 0.31 0.30 0.24 0.26 0.26 0.22 0.22 0.22 0.22 0.22 0.23 0.22 0.23 0.27 0.30 0.37 0.41 0.44 0.48 0.52 0.57 0.62 0.68 0.80 0.87 0.96 1.03 1.09 1.13 1.16 1.25 1.34 1.34 1.34 1.31 1.34 1.33 1.36 1.39 1.35 1.28 1.15 1.09 1.07 1.07 1.03
0.43 0.45 0.35 0.38 0.23 0.19 0.21 0.20 0.17 0.17 0.20 0.24 0.25 0.25 0.27 0.26 0.24 0.25 0.27 0.30 0.35 0.39 0.42 0.49 0.56 0.59 0.66 0.80 0.91 0.98 1.05 1.12 1.18 1.23 1.32 1.28 1.29 1.29 1.29 1.27 1.27 1.26 1.17 1.09 1.15 1.03 1.06 0.93 0.84
0.36 0.35 0.44 0.44 0.41 0.26 0.24 0.24 0.28 0.22 0.30 0.31 0.34 0.35 0.35 0.36 0.35 0.32 0.29 0.29 0.32 0.37 0.43 0.47 0.52 0.58 0.64 0.74 0.88 0.96 0.99 1.07 1.17 1.26 1.30 1.27 1.25 1.26 1.25 1.26 1.20 1.16 1.08 1.09 1.11 1.01 0.96 0.83 0.74
0.41 0.35 0.38 0.32 0.29 0.37 0.37 0.34 0.44 0.42 0.44 0.44 0.42 0.40 0.40 0.42 0.43 0.44 0.41 0.39 0.42 0.44 0.53 0.56 0.58 0.60 0.68 0.78 0.87 0.90 0.99 1.05 1.13 1.25 1.23 1.22 1.19 1.19 1.21 1.19 1.19 1.05 1.00 1.15 1.04 0.99 0.83 0.74 0.65
Wind_Speed
13 13 12 10 9 8 11 12 10 9 9 11 10 11 9 5 5 3 2 7 6 8 8 7 6 5 4 5 5 5 6 6 7 7 7 8 8 8 8 8 8 8 9 9 9 9 10 10 10
15 14 12 11 10 9 12 12 12 10 12 11 13 12 8 7 6 2 4 5 7 8 8 7 6 5 4 4 4 4 4 5 5 6 6 6 6 6 7 7 7 7 7 8 8 8 9 9 9
16 14 13 12 12 12 13 13 11 11 10 11 13 12 10 9 7 6 5 6 7 8 8 7 7 6 5 4 3 3 3 4 5 5 5 5 5 5 5 5 5 6 6 6 6 7 7 8 9
17 16 14 14 15 14 14 12 12 10 10 11 11 12 11 9 8 8 8 8 8 9 8 7 7 6 5 4 3 3 3 3 5 5 5 5 4 4 4 4 4 4 5 5 5 6 6 7 8
17 17 16 16 17 15 15 15 13 12 12 14 13 12 11 10 8 9 9 8 9 9 8 8 7 7 6 5 4 4 3 3 4 6 6 6 5 4 4 4 4 3 4 4 4 5 6 6 6
19 18 17 18 18 17 17 17 15 13 13 14 15 13 12 11 10 11 10 9 10 9 9 8 8 7 7 6 6 5 4 4 5 6 6 6 6 5 5 4 4 4 4 3 4 5 5 5 5
21 20 22 20 18 17 18 17 16 14 15 14 17 17 15 14 13 13 12 11 10 11 10 9 8 8 8 7 7 7 6 6 6 6 7 7 7 7 6 6 6 5 5 5 5 5 6 5 5
23 22 23 22 20 19 19 18 18 15 16 17 18 18 17 16 15 14 13 12 12 12 12 10 9 9 9 8 8 8 8 7 7 7 8 8 9 9 8 8 7 7 7 7 6 6 7 7 7
25 24 25 24 21 20 18 18 19 18 18 16 18 19 18 19 18 15 15 14 13 14 13 12 11 10 10 10 10 9 9 9 8 9 9 9 10 10 10 10 9 9 9 9 9 9 9 9 10
28 28 28 25 23 21 21 21 21 19 19 18 17 18 18 21 21 19 18 17 17 16 15 15 13 12 12 12 11 11 11 10 10 10 10 10 11 11 11 11 11 11 11 11 11 11 11 11 12
30 32 28 25 25 24 24 25 24 22 21 20 18 19 21 23 23 20 19 19 18 18 16 16 15 14 14 13 13 12 12 12 12 11 11 12 12 12 12 13 13 13 13 13 13 13 14 14 14
32 32 29 28 27 26 25 26 27 28 27 24 22 20 21 24 24 23 21 20 18 18 17 17 17 16 15 15 14 13 13 13 13 13 13 13 13 14 14 14 14 15 15 15 15 15 15 16 17
34 32 31 30 29 29 28 30 30 31 29 27 24 22 22 23 24 22 20 20 20 19 18 19 18 17 16 16 15 15 14 15 15 15 15 15 15 15 15 15 15 15 16 16 16 17 17 18 18
31 31 32 33 32 31 31 30 30 33 30 28 26 25 24 25 26 23 23 23 22 21 21 19 19 18 18 17 18 17 16 16 16 16 16 16 16 16 17 16 16 16 17 17 17 17 18 18 18
34 34 35 35 30 31 30 33 35 34 31 31 29 27 27 27 27 28 27 26 25 24 21 21 20 20 20 20 20 19 19 18 18 18 18 18 18 18 18 18 18 18 18 18 18 18 19 19 19
31 32 32 32 33 32 28 40 28 29 33 35 33 30 29 30 30 29 29 30 29 27 25 24 23 22 21 21 22 22 22 21 20 20 20 20 19 19 19 19 19 19 18 18 18 18 19 20 20
33 32 33 31 30 29 33 38 29 31 33 35 34 33 32 31 31 31 30 30 30 32 30 28 26 26 25 24 23 24 24 24 23 23 23 22 21 21 21 20 20 20 20 19 19 19 19 20 21
35 32 29 29 30 32 33 41 32 28 29 32 35 37 36 35 35 33 33 33 33 33 34 33 30 29 28 27 26 26 26 25 26 25 25 24 24 23 22 22 21 21 20 20 19 20 20 20 20
29 30 31 32 34 29 31 36 34 33 34 35 36 36 38 38 37 37 36 36 36 35 35 35 34 33 31 30 29 28 28 28 28 28 27 27 26 25 25 23 22 22 21 21 21 20 20 20 20
38 37 35 30 30 30 32 36 34 34 35 36 37 39 40 39 39 38 38 37 37 38 38 38 37 37 37 35 33 31 29 29 29 29 29 28 28 28 26 25 24 24 23 22 22 22 21 21 22
41 42 39 34 30 31 28 36 35 35 36 37 40 40 39 40 39 40 40 38 39 40 39 40 40 38 37 37 34 31 29 28 29 30 31 31 30 29 28 27 26 26 25 25 24 24 24 23 23
41 37 34 32 30 32 27 36 36 37 38 38 40 40 41 40 39 38 38 38 38 40 39 40 38 37 36 36 35 35 33 30 30 29 30 31 31 30 30 29 29 28 27 27 26 26 26 25 25
40 34 33 33 35 29 35 32 45 34 40 44 43 42 40 38 38 38 38 37 35 34 35 35 35 35 36 36 37 35 34 32 30 29 29 30 30 30 30 30 30 30 30 29 28 28 28 27 27
30 31 29 29 29 32 43 35 48 38 43 41 39 39 39 38 38 38 38 36 35 32 33 34 35 36 36 36 37 37 35 33 31 30 30 30 30 30 30 31 32 32 32 31 30 29 28 28 29
34 33 29 30 31 40 34 33 46 29 34 37 37 39 38 37 36 36 35 37 36 36 34 34 35 36 37 38 39 39 38 36 34 32 31 30 30 29 30 31 32 32 32 32 31 31 30 29 28
42 39 32 28 31 38 31 30 43 36 47 46 36 29 31 34 35 36 36 37 36 36 35 34 34 34 34 36 37 38 38 37 35 34 33 32 32 31 30 30 31 31 31 31 31 31 30 29 29
38 39 44 39 39 29 29 34 49 49 47 41 38 37 37 34 32 36 36 37 37 37 38 38 38 39 38 38 37 37 37 39 38 37 35 35 34 33 31 30 30 30 30 30 31 30 29 29 29
43 33 30 32 35 40 40 39 40 35 36 36 38 39 38 37 38 37 35 36 38 39 41 42 44 44 43 41 40 39 38 37 38 37 37 35 34 33 31 30 29 29 29 29 28 28 28 28 28
32 41 38 28 28 28 31 38 44 44 31 31 31 31 31 32 33 34 35 36 37 37 37 39 41 43 43 43 42 39 38 37 36 36 35 34 33 32 31 30 29 29 29 29 27 28 28 27 27
25 28 27 32 38 21 19 22 21 26 27 28 28 29 31 31 32 31 32 32 32 34 34 35 35 38 40 40 40 38 35 35 35 35 34 33 32 31 30 30 30 29 28 29 27 27 26 27 28
Wind_Direction
243 242 234 230 224 217 221 228 229 238 242 227 201 197 220 221 208 248 272 168 165 164 164 166 163 151 129 109 103 105 113 120 120 115 112 109 109 106 105 103 101 98 95 92 93 93 96 98 96
242 236 232 225 217 216 228 222 222 234 248 225 205 208 223 224 224 255 164 179 171 172 172 173 173 168 153 132 118 112 122 134 138 132 126 121 119 114 109 108 106 103 100 98 98 98 99 100 99
237 233 228 223 219 214 219 220 236 247 242 215 211 220 224 226 235 219 206 186 176 179 181 182 181 180 173 159 145 133 130 148 157 154 147 138 133 130 121 117 115 113 110 105 107 108 106 107 105
234 234 232 226 225 227 219 225 242 253 233 219 218 221 223 231 229 214 196 187 186 184 187 188 190 190 188 183 177 166 159 164 175 175 172 165 157 152 146 136 131 127 124 119 118 118 119 118 115
235 233 233 233 232 228 223 237 241 241 236 238 220 222 232 233 222 205 196 193 188 190 194 196 199 200 201 201 201 197 192 187 190 192 191 188 185 180 176 168 162 155 148 144 138 141 139 135 130
235 232 233 233 233 231 232 236 237 241 241 244 226 221 228 230 218 207 204 205 203 201 202 204 207 209 211 213 214 212 209 208 206 204 204 203 203 201 200 199 195 190 183 178 173 172 168 164 160
230 232 234 232 232 234 230 232 231 242 245 246 233 223 235 228 220 212 210 211 213 212 209 210 214 218 220 222 223 221 221 220 218 214 213 214 214 215 214 216 216 216 214 210 206 201 198 197 198
233 233 233 234 228 234 232 233 233 241 245 255 229 230 236 231 219 214 216 217 219 215 214 216 220 226 228 230 230 228 228 227 225 223 222 222 223 225 226 226 226 228 229 228 226 223 221 223 223
232 234 234 234 227 231 232 233 235 244 245 248 241 236 238 223 216 219 222 224 224 223 222 222 230 234 235 235 235 233 232 232 231 230 230 230 232 232 233 234 234 235 237 239 239 238 237 238 241
231 233 235 235 233 233 236 235 239 246 250 242 245 239 235 221 221 224 225 226 227 226 227 231 237 240 239 238 237 237 236 237 237 237 236 237 236 237 238 240 240 241 243 245 246 247 248 249 252
235 238 237 238 237 236 237 239 238 240 245 236 250 245 234 227 226 229 226 227 227 227 233 236 239 241 242 239 237 239 239 240 241 241 241 241 240 241 243 244 245 246 247 249 250 251 253 256 258
239 239 238 239 238 238 236 238 240 237 238 245 250 246 234 229 226 227 228 228 231 231 233 238 241 241 240 238 240 241 242 242 243 244 244 244 244 244 246 249 249 250 250 253 254 256 257 259 262
239 239 241 240 241 242 241 239 239 239 239 245 247 241 234 229 227 226 232 233 234 236 239 242 239 239 241 239 241 243 246 245 246 246 246 246 247 247 248 251 252 253 253 255 258 260 261 262 264
239 239 242 242 242 242 241 242 237 237 235 238 240 241 234 229 228 229 234 236 237 239 240 241 239 240 243 242 243 246 248 248 247 248 248 248 249 250 251 253 254 255 256 257 259 261 264 266 266
241 245 247 242 240 241 240 243 238 237 236 240 240 240 236 233 233 236 236 238 239 240 239 240 240 243 244 246 247 248 250 250 250 250 250 250 251 251 252 254 255 256 256 258 260 262 265 267 269
240 238 239 242 237 239 235 245 239 238 235 239 238 240 238 238 238 239 240 240 240 240 240 242 244 246 247 250 250 250 251 252 253 251 251 251 252 253 254 255 256 256 257 259 261 264 267 269 271
239 240 239 245 239 237 234 246 242 238 237 238 238 238 239 240 241 242 243 242 241 241 242 243 245 247 249 251 253 252 252 252 253 253 252 251 252 253 255 256 257 256 258 259 261 265 268 271 273
236 239 241 240 239 237 240 245 245 243 239 240 239 240 240 241 243 244 244 245 246 244 244 245 247 248 249 250 253 252 252 254 253 253 253 251 252 253 254 256 257 256 257 258 261 265 269 273 276
240 240 243 243 244 245 243 247 247 245 243 242 242 241 241 242 244 246 248 249 249 247 246 246 248 251 250 250 250 251 251 253 254 253 252 252 251 252 254 255 255 256 256 258 261 265 268 273 277
240 244 243 245 248 244 247 250 248 243 244 242 243 244 245 245 245 247 249 250 250 249 248 249 250 251 250 252 251 250 250 253 254 253 252 252 252 252 253 253 254 254 256 258 261 263 269 274 277
236 239 241 244 250 249 252 254 247 246 245 246 244 244 245 245 248 249 249 249 251 251 251 250 251 251 250 248 247 248 248 253 254 253 252 252 252 252 252 253 254 254 257 259 261 264 267 273 277
238 238 240 242 245 246 244 255 247 246 246 244 246 244 246 247 248 249 250 251 252 252 252 252 250 249 248 245 244 244 246 250 253 253 252 251 251 252 252 254 254 255 257 259 262 265 268 272 276
241 237 237 239 242 246 246 251 250 243 245 245 246 248 247 248 248 250 250 249 252 251 248 248 248 248 247 245 244 243 244 249 252 251 251 250 251 252 253 254 254 256 258 260 262 265 268 272 275
237 238 238 240 241 242 242 238 254 242 244 250 249 249 249 248 249 250 250 250 251 251 248 248 247 247 247 245 243 242 244 247 248 248 250 250 250 253 256 255 256 258 257 259 262 265 268 273 277
232 230 236 237 237 243 241 237 243 246 244 248 248 248 248 249 249 251 251 249 250 250 249 249 248 248 246 246 246 245 244 244 245 246 248 249 250 254 258 258 257 256 257 259 260 264 267 272 275
231 231 234 238 239 246 235 238 242 246 247 253 253 251 251 252 250 249 250 250 249 248 249 248 248 249 248 247 246 245 244 245 246 247 249 250 250 254 258 260 257 257 256 258 260 264 267 270 276
232 232 237 246 251 253 245 247 252 251 252 252 254 253 253 252 252 249 250 249 249 249 250 251 252 251 250 248 248 247 246 244 245 246 248 249 251 255 258 260 256 256 257 257 260 262 264 271 275
231 235 234 235 240 242 245 244 246 246 249 251 252 254 255 254 253 252 251 251 251 253 255 254 252 251 250 250 250 249 247 244 244 244 245 248 250 253 255 256 257 255 256 259 257 262 267 271 275
234 235 238 243 240 242 245 246 245 249 255 257 257 257 258 257 254 253 253 252 253 253 255 256 255 250 249 249 248 249 245 242 242 242 243 246 249 252 254 253 256 255 257 255 260 261 267 272 276
238 238 241 241 240 246 242 244 248 243 244 251 257 259 259 256 256 256 254 252 252 253 256 257 258 251 248 246 242 242 242 239 238 239 241 245 248 252 253 255 253 256 256 250 261 259 268 272 276